Volver al catálogo

STARLINK-2501

ActivoComunicacionesVLEO
NORAD 48330·PAYLOAD·🇺🇸 United States

Lanzado Apr 29, 2021 desde Cape Canaveral Space Force Station

Loading…

Próximos Pases (próximas 24 horas)

TLE

ActualizadoSource: CelesTrak SupGP

Época: Sep 14, 2026, 13:26 UTC

1 48330C 21036BG  26257.56020833  .00053802  00000+0  17304-2 0  2570
2 48330  53.1586 302.5176 0001209  76.6252  89.8421 15.31670685    17

Sigue STARLINK-2501 en tiempo real con AllMySat

Download on the App Store